Home > Weather > Cali > Past weeks

Flag for Colombia Weather for the Past 2 Weeks in Cali, Colombia

Now
68 °F

Fog.


Feels Like: 68 °F
Forecast: 69 / 81 °F
Wind: 2 mph from North

Location: Cali / Alfonso Bonillaaragon

Current Time: May 1, 2016 at 7:15:05 AM

Latest Report: May 1, 2016 at 7:00 AM


Visibility: 2 mi

Pressure: 30.02 "Hg (26.86 "Hg at 955m altitude)

Humidity: 100%

Dew Point: 68 °F

Location of CaliLocation

Historic Weather in Cali — Graph

°F

Cali Temperature Yesterday

Maximum temperature yesterday: 82 °F (at 12:00 PM)
Minimum temperature yesterday: 66 °F (at 9:00 PM)
Average temperature yesterday: 73 °F

High & Low Weather Summary for the Past Weeks

 TemperatureHumidityPressure
High91 °F (Apr 21, 3:00 PM)100% (Apr 16, 7:00 AM)30.09 "Hg (Apr 16, 7:00 AM)
Low66 °F (Apr 30, 9:00 PM)46% (Apr 21, 3:00 PM)29.79 "Hg (Apr 21, 5:00 PM)
Average76 °F81%29.96 "Hg
* Reported Apr 16 6:00 AM — May 1 6:00 AM, Cali, Weather by CustomWeather, © 2016

Note: Actual official high and low records may vary slightly from our data, if they occured in-between our weather recording intervals... More about our weather records

Advertising

Cali Weather History for the Previous 24 Hours

Scroll right to see more
 ConditionsComfort  
Time TempWeatherWind HumidityBarometerVisibility
6:00 AM
Sun, May 1
68 °FFog.No wind100%30.00 "Hg2 mi
5:00 AM68 °FPartly cloudy.No wind100%29.99 "Hg6 mi
4:00 AM68 °FPassing clouds.No wind94%29.99 "Hg6 mi
3:00 AM68 °FPartly cloudy.No wind94%30.00 "Hg6 mi
2:00 AM68 °FPartly cloudy.5 mph94%30.01 "Hg6 mi
1:00 AM66 °FPartly cloudy.3 mph100%30.01 "Hg6 mi
12:00 AM66 °FScattered showers. Partly cloudy.5 mph100%30.03 "Hg6 mi
11:00 PM
Sat, Apr 30
66 °FScattered showers. Partly cloudy.2 mph100%30.03 "Hg6 mi
10:00 PM66 °FPartly cloudy.3 mph100%30.04 "Hg5 mi
9:00 PM66 °FPartly cloudy.7 mph100%30.04 "Hg5 mi
8:00 PM68 °FPartly cloudy.5 mph94%30.01 "Hg6 mi
7:00 PM68 °FPassing clouds.6 mph88%29.99 "Hg6 mi
6:00 PM72 °FDrizzle. Partly sunny.20 mph88%29.96 "Hg6 mi
5:00 PM72 °FDrizzle. Partly sunny.8 mph94%29.91 "Hg5 mi
4:00 PM73 °FThunderstorms. Broken clouds.12 mph89%29.90 "Hg5 mi
3:00 PM79 °FScattered showers. Broken clouds.13 mph70%29.87 "Hg6 mi
2:00 PM81 °FScattered showers. Broken clouds.3 mph70%29.88 "Hg5 mi
1:00 PM81 °FScattered clouds.7 mph70%29.91 "Hg5 mi
12:00 PM82 °FScattered clouds.7 mph74%29.96 "Hg6 mi
11:00 AM81 °FBroken clouds.5 mph74%29.98 "Hg6 mi
10:00 AM79 °FBroken clouds.2 mph74%29.99 "Hg6 mi
9:00 AM75 °FBroken clouds.2 mph83%30.00 "Hg6 mi
8:00 AM75 °FPartly sunny.2 mph83%29.99 "Hg6 mi
7:00 AM72 °FPartly sunny.No wind94%29.97 "Hg6 mi
Weather by CustomWeather, © 2016

See weather overviewHow to use our weather pages